Home   Weather   Mahón   Past weeks

Flag for Spain Past Weather in Mahón, Menorca, Spain — Yesterday and Last 2 Weeks

Now
56 °F

Cool.


Feels Like: 52 °F
Forecast: 51 / 64 °F
Wind: 18 mph from North

Location: Menorca / Mahon

Current Time: May 1, 2017 at 6:14:59 am

Latest Report: May 1, 2017 at 5:00 am


Visibility: N/A

Pressure: 29.93 "Hg

Humidity: 88%

Dew Point: 53 °F

Location of MahónLocation

Past Weather in Mahón — Graph

°F

Mahón Temperature Yesterday

Maximum temperature yesterday: 67 °F (at 3:00 pm)
Minimum temperature yesterday: 49 °F (at 5:00 am)
Average temperature yesterday: 59 °F

High & Low Weather Summary for the Past Weeks

 TemperatureHumidityPressure
High71 °F (Apr 16, 4:00 pm)100% (Apr 27, 2:00 pm)30.40 "Hg (Apr 27, 2:00 pm)
Low41 °F (Apr 22, 6:00 am)39% (Apr 21, 1:00 pm)29.72 "Hg (Apr 26, 7:00 am)
Average58 °F71%30.07 "Hg
* Reported Apr 16 4:00 am — May 1 4:00 am, Mahón, Weather by CustomWeather, © 2017

Note: Actual official high and low records may vary slightly from our data, if they occured in-between our weather recording intervals... More about our weather records

Advertising

Mahón Weather History for the Previous 24 Hours

Scroll right to see more
 ConditionsComfort  
Time TempWeatherWind HumidityBarometerVisibility
4:00 am
Mon, May 1
60 °FCool.10 mph91%29.91 "HgN/A
3:00 am61 °FCool.10 mph94%29.91 "HgN/A
2:00 am61 °FCool.10 mph93%29.91 "HgN/A
1:00 am61 °FCool.13 mph92%29.91 "HgN/A
12:00 am61 °FCool.15 mph90%29.91 "HgN/A
11:00 pm
Sun, Apr 30
61 °FOvercast.15 mph89%29.91 "Hg7 mi
10:00 pm60 °FCool.16 mph89%29.90 "HgN/A
9:00 pm60 °FCool.15 mph86%29.88 "HgN/A
8:00 pm62 °FOvercast.15 mph77%29.88 "Hg12 mi
7:00 pm62 °FCool.14 mph78%29.89 "HgN/A
6:00 pm64 °FMild.16 mph72%29.90 "HgN/A
5:00 pm65 °FOvercast.16 mph65%29.91 "Hg12 mi
4:00 pm67 °FMild.18 mph63%29.92 "HgN/A
3:00 pm67 °FPartly sunny.17 mph61%29.93 "Hg15 mi
2:00 pm67 °FPartly sunny.16 mph56%29.95 "Hg15 mi
1:00 pm66 °FMild.15 mph58%29.96 "HgN/A
12:00 pm66 °FMild.15 mph60%29.96 "HgN/A
11:00 am66 °FOvercast.14 mph60%29.97 "Hg17 mi
10:00 am63 °FMild.12 mph64%29.98 "HgN/A
9:00 am62 °FScattered clouds.9 mph65%29.98 "Hg19 mi
8:00 am58 °FPartly sunny.7 mph73%29.99 "Hg16 mi
7:00 am50 °FCool.3 mph88%29.98 "HgN/A
6:00 am50 °FCool.3 mph87%29.97 "HgN/A
Weather by CustomWeather, © 2017

See weather overviewHow to use our weather pages